| time (UTC) | temp F | wind direction | speed MPH | gust MPH | rain 1hr in | rain 24hr in | rain mn in | humidity % | barometer mb |
| 20260507115403 | 44 | 331 | 3.0 | 7.0 | 0.00 | 0.00 | 0.00 | 1013.6 | |
| 20260507114903 | 44 | 316 | 2.0 | 5.0 | 0.00 | 0.00 | 0.00 | 1013.9 | |
| 20260507114403 | 44 | 329 | 2.0 | 5.0 | 0.00 | 0.00 | 0.00 | 1014.3 | |
| 20260507113902 | 44 | 306 | 1.0 | 5.0 | 0.00 | 0.00 | 0.00 | 1013.9 | |
| 20260507113403 | 44 | 298 | 2.0 | 5.0 | 0.00 | 0.00 | 0.00 | 1014.3 | |
| 20260507112903 | 44 | 303 | 2.0 | 5.0 | 0.00 | 0.00 | 0.00 | 1014.3 | |
| 20260507112424 | 44 | 320 | 1.0 | 5.0 | 0.00 | 0.00 | 0.00 | 1014.3 | |
| 20260507111905 | 43 | 336 | 2.0 | 5.0 | 0.00 | 0.00 | 0.00 | 1013.6 | |
| 20260507111403 | 42 | 317 | 1.0 | 4.0 | 0.00 | 0.00 | 0.00 | 1014.6 | |
| 20260507110903 | 42 | 305 | 0.0 | 3.0 | 0.00 | 0.00 | 0.00 | 1013.9 | |
| 20260507110402 | 42 | 299 | 2.0 | 3.0 | 0.00 | 0.00 | 0.00 | 1013.9 | |
| 20260507105924 | 41 | 340 | 0.0 | 5.0 | 0.00 | 0.00 | 0.00 | 1013.6 | |
| 20260507105403 | 41 | 312 | 1.0 | 5.0 | 0.00 | 0.00 | 0.00 | 1014.3 | |
| 20260507104903 | 41 | 313 | 1.0 | 5.0 | 0.00 | 0.00 | 0.00 | 1013.6 | |
| 20260507104403 | 41 | 307 | 0.0 | 5.0 | 0.00 | 0.00 | 0.00 | 1013.9 | |
| 20260507103903 | 41 | 331 | 0.0 | 5.0 | 0.00 | 0.00 | 0.00 | 1013.6 | |
| 20260507103403 | 41 | 334 | 1.0 | 5.0 | 0.00 | 0.00 | 0.00 | 1013.9 | |
| 20260507102947 | 42 | 309 | 1.0 | 5.0 | 0.00 | 0.00 | 0.00 | 1013.6 | |
| 20260507102403 | 42 | 301 | 2.0 | 4.0 | 0.00 | 0.00 | 0.00 | 1014.3 | |
| 20260507101903 | 42 | 319 | 1.0 | 6.0 | 0.00 | 0.00 | 0.00 | 1013.2 | |
| 20260507101402 | 42 | 302 | 2.0 | 8.0 | 0.00 | 0.00 | 0.00 | 1014.3 | |
| 20260507100903 | 42 | 295 | 2.0 | 8.0 | 0.00 | 0.00 | 0.00 | 1013.9 | |
| 20260507100424 | 42 | 294 | 3.0 | 5.0 | 0.00 | 0.00 | 0.00 | 1014.3 | |
| 20260507095903 | 42 | 309 | 1.0 | 4.0 | 0.00 | 0.00 | 0.00 | 1013.2 | |
| 20260507095403 | 42 | 326 | 0.0 | 4.0 | 0.00 | 0.00 | 0.00 | 1013.2 | |
| 20260507094903 | 42 | 323 | 1.0 | 6.0 | 0.00 | 0.00 | 0.00 | 1013.9 | |
| 20260507094403 | 42 | 308 | 3.0 | 6.0 | 0.00 | 0.00 | 0.00 | 1013.2 | |
| 20260507093904 | 42 | 319 | 2.0 | 8.0 | 0.00 | 0.00 | 0.00 | 1013.6 | |
| 20260507093424 | 42 | 305 | 2.0 | 8.0 | 0.00 | 0.00 | 0.00 | 1013.9 | |
| 20260507092903 | 42 | 307 | 3.0 | 8.0 | 0.00 | 0.00 | 0.00 | 1013.9 | |
| 20260507092403 | 42 | 310 | 2.0 | 6.0 | 0.00 | 0.00 | 0.00 | 1013.2 | |
| 20260507090924 | 43 | 293 | 1.0 | 5.0 | 0.00 | 0.00 | 0.00 | 1013.2 | |
| 20260507090403 | 43 | 310 | 2.0 | 7.0 | 0.00 | 0.00 | 0.00 | 1013.9 | |
| 20260507085903 | 43 | 316 | 3.0 | 7.0 | 0.00 | 0.00 | 0.00 | 1012.9 | |
| 20260507085403 | 43 | 292 | 2.0 | 4.0 | 0.00 | 0.00 | 0.00 | 1013.2 | |
| 20260507084903 | 43 | 302 | 2.0 | 5.0 | 0.00 | 0.00 | 0.00 | 1013.2 | |
| 20260507084403 | 43 | 297 | 2.0 | 5.0 | 0.00 | 0.00 | 0.00 | 1013.6 | |
| 20260507083903 | 43 | 308 | 2.0 | 5.0 | 0.00 | 0.00 | 0.00 | 1013.2 | |
| 20260507083403 | 43 | 307 | 2.0 | 5.0 | 0.00 | 0.00 | 0.00 | 1013.2 | |
| 20260507082903 | 43 | 288 | 1.0 | 4.0 | 0.00 | 0.00 | 0.00 | 1013.6 | |
| 20260507082403 | 43 | 321 | 2.0 | 5.0 | 0.00 | 0.00 | 0.00 | 1013.6 | |
| 20260507081902 | 43 | 295 | 1.0 | 8.0 | 0.00 | 0.00 | 0.00 | 1013.2 | |
| 20260507081403 | 43 | 293 | 3.0 | 8.0 | 0.00 | 0.00 | 0.00 | 1012.9 | |
| 20260507080924 | 43 | 297 | 1.0 | 5.0 | 0.00 | 0.00 | 0.00 | 1013.2 | |
| 20260507080403 | 43 | 297 | 1.0 | 5.0 | 0.00 | 0.00 | 0.00 | 1012.9 | |
| 20260507075903 | 43 | 296 | 2.0 | 6.0 | 0.00 | 0.00 | 0.00 | 1012.9 | |
| 20260507075425 | 43 | 288 | 2.0 | 6.0 | 0.00 | 0.00 | 0.00 | 1013.6 | |
| 20260507074903 | 43 | 287 | 2.0 | 6.0 | 0.00 | 0.00 | 0.00 | 1012.9 | |
| 20260507074402 | 42 | 278 | 0.0 | 7.0 | 0.00 | 0.00 | 0.00 | 1013.6 | |
| 20260507073903 | 42 | 272 | 1.0 | 7.0 | 0.00 | 0.00 | 0.00 | 1013.2 | |
| 20260507073424 | 42 | 286 | 0.0 | 6.0 | 0.00 | 0.00 | 0.00 | 1013.6 | |
| 20260507072903 | 42 | 266 | 0.0 | 6.0 | 0.00 | 0.00 | 0.00 | 1013.6 | |
| 20260507072403 | 42 | 251 | 0.0 | 6.0 | 0.00 | 0.00 | 0.00 | 1013.6 | |
| 20260507071903 | 42 | 262 | 0.0 | 7.0 | 0.00 | 0.00 | 0.00 | 1013.2 | |
| 20260507071404 | 42 | 272 | 0.0 | 7.0 | 0.00 | 0.00 | 0.00 | 1013.2 | |
| 20260507070903 | 42 | 227 | 0.0 | 6.0 | 0.00 | 0.00 | 0.00 | 1012.9 | |
| 20260507070403 | 42 | 273 | 0.0 | 6.0 | 0.00 | 0.00 | 0.00 | 1013.6 | |
| 20260507065903 | 42 | 265 | 0.0 | 6.0 | 0.00 | 0.00 | 0.00 | 1013.6 | |
| 20260507065403 | 42 | 267 | 0.0 | 6.0 | 0.00 | 0.00 | 0.00 | 1013.2 | |
| 20260507063903 | 42 | 270 | 0.0 | 6.0 | 0.00 | 0.00 | 0.00 | 1013.6 | |
| 20260507063403 | 42 | 269 | 0.0 | 6.0 | 0.00 | 0.00 | 0.00 | 1013.6 | |
| 20260507062924 | 43 | 292 | 0.0 | 7.0 | 0.00 | 0.00 | 0.00 | 1013.2 | |
| 20260507062446 | 43 | 232 | 0.0 | 7.0 | 0.00 | 0.00 | 0.00 | 1013.9 | |
| 20260507061903 | 43 | 224 | 1.0 | 7.0 | 0.00 | 0.00 | 0.00 | 1013.2 | |
| 20260507061403 | 43 | 314 | 0.0 | 6.0 | 0.00 | 0.00 | 0.00 | 1013.6 | |
| 20260507060903 | 43 | 248 | 0.0 | 6.0 | 0.00 | 0.00 | 0.00 | 1013.9 | |
| 20260507060404 | 43 | 247 | 0.0 | 6.0 | 0.00 | 0.00 | 0.00 | 1013.9 | |
| 20260507055903 | 43 | 248 | 0.0 | 6.0 | 0.00 | 0.00 | 0.00 | 1013.2 | |
| 20260507055403 | 43 | 264 | 0.0 | 6.0 | 0.00 | 0.00 | 0.00 | 1013.2 | |
| 20260507054903 | 43 | 249 | 0.0 | 5.0 | 0.00 | 0.00 | 0.00 | 1013.2 | |
| 20260507054403 | 43 | 269 | 0.0 | 6.0 | 0.00 | 0.00 | 0.00 | 1013.9 | |
| 20260507053902 | 43 | 269 | 0.0 | 6.0 | 0.00 | 0.00 | 0.00 | 1013.6 | |
| 20260507053403 | 43 | 269 | 0.0 | 5.0 | 0.00 | 0.00 | 0.00 | 1013.2 | |
| 20260507052924 | 43 | 269 | 0.0 | 5.0 | 0.00 | 0.00 | 0.00 | 1013.6 | |
| 20260507052403 | 43 | 269 | 0.0 | 2.0 | 0.00 | 0.00 | 0.00 | 1013.6 | |
| 20260507051903 | 43 | 269 | 0.0 | 6.0 | 0.00 | 0.00 | 0.00 | 1013.9 | |
| 20260507051403 | 43 | 250 | 0.0 | 6.0 | 0.00 | 0.00 | 0.00 | 1013.2 | |
| 20260507050924 | 43 | 269 | 0.0 | 6.0 | 0.00 | 0.00 | 0.00 | 1014.3 | |
| 20260507050424 | 43 | 269 | 0.0 | 6.0 | 0.00 | 0.00 | 0.00 | 1014.6 | |
| 20260507045403 | 43 | 269 | 0.0 | 6.0 | 0.00 | 0.00 | 0.00 | 1013.6 | |
| 20260507044903 | 44 | 269 | 0.0 | 7.0 | 0.00 | 0.00 | 0.00 | 1014.3 | |
| 20260507044403 | 44 | 269 | 1.0 | 7.0 | 0.00 | 0.00 | 0.00 | 1014.3 | |
| 20260507043903 | 44 | 269 | 0.0 | 6.0 | 0.00 | 0.00 | 0.00 | 1014.3 | |
| 20260507043403 | 44 | 202 | 0.0 | 6.0 | 0.00 | 0.00 | 0.00 | 1014.3 | |
| 20260507042924 | 44 | 202 | 0.0 | 6.0 | 0.00 | 0.00 | 0.00 | 1013.6 | |
| 20260507042403 | 44 | 202 | 0.0 | 6.0 | 0.00 | 0.00 | 0.00 | 1013.6 | |
| 20260507041902 | 44 | 202 | 0.0 | 6.0 | 0.00 | 0.00 | 0.00 | 1013.9 | |
| 20260507041403 | 44 | 203 | 0.0 | 6.0 | 0.00 | 0.00 | 0.00 | 1014.3 | |
| 20260507040904 | 44 | 202 | 0.0 | 6.0 | 0.00 | 0.00 | 0.00 | 1013.6 | |
| 20260507040403 | 45 | 202 | 0.0 | 3.0 | 0.00 | 0.00 | 0.00 | 1014.3 | |
| 20260507035903 | 45 | 202 | 0.0 | 4.0 | 0.00 | 0.00 | 0.00 | 1013.9 | |
| 20260507035403 | 45 | 202 | 0.0 | 8.0 | 0.00 | 0.00 | 0.00 | 1013.6 | |
| 20260507034903 | 45 | 202 | 1.0 | 8.0 | 0.00 | 0.00 | 0.00 | 1013.2 | |
| 20260507034404 | 45 | 203 | 0.0 | 6.0 | 0.00 | 0.00 | 0.00 | 1013.6 | |
| 20260507033903 | 45 | 202 | 0.0 | 6.0 | 0.00 | 0.00 | 0.00 | 1013.6 | |
| 20260507033424 | 45 | 202 | 0.0 | 1.0 | 0.00 | 0.00 | 0.00 | 1013.2 | |
| 20260507032903 | 45 | 203 | 0.0 | 1.0 | 0.00 | 0.00 | 0.00 | 1013.6 | |
| 20260507032404 | 45 | 203 | 0.0 | 3.0 | 0.00 | 0.00 | 0.00 | 1013.6 | |
| 20260507031903 | 45 | 202 | 0.0 | 3.0 | 0.00 | 0.00 | 0.00 | 1013.9 | |
| 20260507031403 | 46 | 203 | 0.0 | 6.0 | 0.00 | 0.00 | 0.00 | 1013.6 | |
| 20260507030904 | 46 | 202 | 0.0 | 6.0 | 0.00 | 0.00 | 0.00 | 1013.6 | |
| 20260507030403 | 46 | 203 | 0.0 | 7.0 | 0.00 | 0.00 | 0.00 | 1014.3 | |
| 20260507025903 | 46 | 203 | 0.0 | 7.0 | 0.00 | 0.00 | 0.00 | 1013.6 | |
| 20260507025445 | 46 | 202 | 0.0 | 3.0 | 0.00 | 0.00 | 0.00 | 1013.6 | |
| 20260507024904 | 46 | 203 | 0.0 | 3.0 | 0.00 | 0.00 | 0.00 | 1013.9 | |
| 20260507024403 | 46 | 202 | 0.0 | 7.0 | 0.00 | 0.00 | 0.00 | 1013.6 | |
| 20260507023903 | 47 | 202 | 0.0 | 7.0 | 0.00 | 0.00 | 0.00 | 1013.9 | |
| 20260507023403 | 47 | 340 | 0.0 | 6.0 | 0.00 | 0.00 | 0.00 | 1013.6 | |
| 20260507022946 | 46 | 225 | 0.0 | 6.0 | 0.00 | 0.00 | 0.00 | 1013.6 | |
| 20260507022403 | 47 | 224 | 0.0 | 6.0 | 0.00 | 0.00 | 0.00 | 1013.9 | |
| 20260507021903 | 47 | 202 | 0.0 | 5.0 | 0.00 | 0.00 | 0.00 | 1013.6 | |
| 20260507021404 | 47 | 203 | 0.0 | 5.0 | 0.00 | 0.00 | 0.00 | 1013.9 | |
| 20260507020903 | 47 | 202 | 0.0 | 6.0 | 0.00 | 0.00 | 0.00 | 1013.6 | |
| 20260507020445 | 48 | 202 | 0.0 | 6.0 | 0.00 | 0.00 | 0.00 | 1013.6 | |
| 20260507015903 | 49 | 185 | 0.0 | 6.0 | 0.00 | 0.00 | 0.00 | 1013.6 | |
| 20260507015445 | 48 | 228 | 0.0 | 6.0 | 0.00 | 0.00 | 0.00 | 1012.9 | |
| 20260507014903 | 49 | 331 | 0.0 | 6.0 | 0.00 | 0.00 | 0.00 | 1013.2 | |
| 20260507014404 | 49 | 350 | 0.0 | 5.0 | 0.00 | 0.00 | 0.00 | 1012.9 | |
| 20260507013903 | 49 | 309 | 0.0 | 5.0 | 0.00 | 0.00 | 0.00 | 1013.2 | |
| 20260507013403 | 50 | 298 | 0.0 | 5.0 | 0.00 | 0.00 | 0.00 | 1012.9 | |
| 20260507012902 | 50 | 344 | 0.0 | 5.0 | 0.00 | 0.00 | 0.00 | 1013.2 | |
| 20260507012403 | 50 | 309 | 0.0 | 4.0 | 0.00 | 0.00 | 0.00 | 1012.9 | |
| 20260507011903 | 50 | 342 | 0.0 | 2.0 | 0.00 | 0.00 | 0.00 | 1012.9 | |
| 20260507011403 | 51 | 326 | 0.0 | 4.0 | 0.00 | 0.00 | 0.00 | 1013.2 | |
| 20260507010904 | 51 | 328 | 0.0 | 4.0 | 0.00 | 0.00 | 0.00 | 1013.6 | |
| 20260507010403 | 51 | 315 | 2.0 | 3.0 | 0.00 | 0.00 | 0.00 | 1013.9 | |
| 20260507005903 | 51 | 287 | 2.0 | 5.0 | 0.00 | 0.00 | 0.00 | 1013.6 | |
| 20260507005425 | 51 | 278 | 0.0 | 5.0 | 0.00 | 0.00 | 0.00 | 1013.6 | |
| 20260507004903 | 51 | 328 | 0.0 | 6.0 | 0.00 | 0.00 | 0.00 | 1013.2 | |
| 20260507004403 | 51 | 252 | 1.0 | 6.0 | 0.00 | 0.00 | 0.00 | 1012.9 | |
| 20260507003924 | 51 | 310 | 1.0 | 5.0 | 0.00 | 0.00 | 0.00 | 1012.9 | |
| 20260507003424 | 52 | 287 | 2.0 | 3.0 | 0.00 | 0.00 | 0.00 | 1013.2 | |
| 20260507002903 | 52 | 328 | 0.0 | 2.0 | 0.00 | 0.00 | 0.00 | 1013.6 | |
| 20260507002403 | 52 | 287 | 0.0 | 5.0 | 0.00 | 0.00 | 0.00 | 1012.9 | |
| 20260507001903 | 52 | 277 | 0.0 | 5.0 | 0.00 | 0.00 | 0.00 | 1012.9 | |
| 20260507001404 | 52 | 282 | 2.0 | 5.0 | 0.00 | 0.00 | 0.00 | 1013.2 | |
| 20260507000903 | 52 | 301 | 0.0 | 5.0 | 0.00 | 0.00 | 0.00 | 1012.9 | |
| 20260507000405 | 53 | 289 | 3.0 | 5.0 | 0.00 | 0.00 | 0.00 | 1012.9 | |
| 20260506235903 | 53 | 301 | 3.0 | 5.0 | 0.00 | 0.00 | 0.00 | 1012.6 | |
| 20260506235424 | 53 | 317 | 1.0 | 6.0 | 0.00 | 0.00 | 0.00 | 1012.6 | |
| 20260506234902 | 53 | 292 | 3.0 | 7.0 | 0.00 | 0.00 | 0.00 | 1012.9 | |
| 20260506234403 | 53 | 288 | 5.0 | 7.0 | 0.00 | 0.00 | 0.00 | 1012.9 | |
| 20260506233904 | 53 | 291 | 2.0 | 6.0 | 0.00 | 0.00 | 0.00 | 1012.9 | |
| 20260506233403 | 54 | 300 | 3.0 | 6.0 | 0.00 | 0.00 | 0.00 | 1012.9 | |
| 20260506232903 | 54 | 317 | 2.0 | 8.0 | 0.00 | 0.00 | 0.00 | 1012.6 | |
| 20260506232403 | 54 | 300 | 2.0 | 8.0 | 0.00 | 0.00 | 0.00 | 1012.6 | |
| 20260506231903 | 55 | 321 | 3.0 | 7.0 | 0.00 | 0.00 | 0.00 | 1012.6 | |
| 20260506231403 | 55 | 300 | 3.0 | 6.0 | 0.00 | 0.00 | 0.00 | 1012.9 | |
| 20260506230903 | 55 | 331 | 1.0 | 9.0 | 0.00 | 0.00 | 0.00 | 1012.6 | |
| 20260506230424 | 55 | 283 | 5.0 | 9.0 | 0.00 | 0.00 | 0.00 | 1012.6 | |
| 20260506225903 | 55 | 308 | 4.0 | 7.0 | 0.00 | 0.00 | 0.00 | 1012.9 | |
| 20260506225424 | 56 | 343 | 3.0 | 7.0 | 0.00 | 0.00 | 0.00 | 1012.9 | |
| 20260506224903 | 55 | 324 | 3.0 | 7.0 | 0.00 | 0.00 | 0.00 | 1013.2 | |
| 20260506224403 | 54 | 331 | 1.0 | 6.0 | 0.00 | 0.00 | 0.00 | 1012.9 | |
| 20260506223903 | 54 | 348 | 0.0 | 6.0 | 0.00 | 0.00 | 0.00 | 1012.9 | |
| 20260506223424 | 53 | 271 | 3.0 | 6.0 | 0.00 | 0.00 | 0.00 | 1013.2 | |
| 20260506222903 | 53 | 293 | 3.0 | 8.0 | 0.00 | 0.00 | 0.00 | 1013.2 | |
| 20260506222403 | 53 | 291 | 4.0 | 8.0 | 0.00 | 0.00 | 0.00 | 1013.2 | |
| 20260506221902 | 53 | 303 | 3.0 | 8.0 | 0.00 | 0.00 | 0.00 | 1012.6 | |
| 20260506221403 | 53 | 288 | 4.0 | 9.0 | 0.00 | 0.00 | 0.00 | 1012.9 | |
| 20260506220946 | 53 | 289 | 5.0 | 9.0 | 0.00 | 0.00 | 0.00 | 1012.9 | |
| 20260506220402 | 53 | 279 | 4.0 | 9.0 | 0.00 | 0.00 | 0.00 | 1013.2 | |
| 20260506215903 | 54 | 311 | 3.0 | 9.0 | 0.00 | 0.00 | 0.00 | 1012.6 | |
| 20260506215404 | 54 | 336 | 2.0 | 9.0 | 0.00 | 0.00 | 0.00 | 1013.2 | |
| 20260506214903 | 54 | 292 | 2.0 | 9.0 | 0.00 | 0.00 | 0.00 | 1012.9 | |
| 20260506214404 | 54 | 340 | 2.0 | 7.0 | 0.00 | 0.00 | 0.00 | 1012.6 | |
| 20260506213903 | 54 | 339 | 3.0 | 8.0 | 0.00 | 0.00 | 0.00 | 1012.6 | |
| 20260506213424 | 54 | 354 | 3.0 | 8.0 | 0.00 | 0.00 | 0.00 | 1012.6 | |
| 20260506212903 | 54 | 324 | 3.0 | 6.0 | 0.00 | 0.00 | 0.00 | 1012.6 | |
| 20260506212403 | 54 | 302 | 3.0 | 8.0 | 0.00 | 0.00 | 0.00 | 1012.9 | |
| 20260506211402 | 54 | 348 | 3.0 | 10.0 | 0.00 | 0.00 | 0.00 | 1012.6 | |
| 20260506210903 | 54 | 331 | 3.0 | 10.0 | 0.00 | 0.00 | 0.00 | 1012.2 | |
| 20260506210403 | 54 | 302 | 6.0 | 10.0 | 0.00 | 0.00 | 0.00 | 1012.6 | |
| 20260506205903 | 54 | 299 | 3.0 | 6.0 | 0.00 | 0.00 | 0.00 | 1012.2 | |
| 20260506205404 | 54 | 328 | 1.0 | 10.0 | 0.00 | 0.00 | 0.00 | 1012.9 | |
| 20260506204903 | 54 | 310 | 4.0 | 10.0 | 0.00 | 0.00 | 0.00 | 1012.2 | |
| 20260506204425 | 54 | 291 | 4.0 | 9.0 | 0.00 | 0.00 | 0.00 | 1011.9 | |
| 20260506203924 | 54 | 297 | 4.0 | 6.0 | 0.00 | 0.00 | 0.00 | 1012.2 | |
| 20260506203403 | 54 | 25 | 2.0 | 9.0 | 0.00 | 0.00 | 0.00 | 1012.2 | |
| 20260506202903 | 54 | 328 | 2.0 | 9.0 | 0.00 | 0.00 | 0.00 | 1012.6 | |
| 20260506202404 | 54 | 305 | 2.0 | 6.0 | 0.00 | 0.00 | 0.00 | 1012.9 | |
| 20260506201903 | 54 | 322 | 1.0 | 7.0 | 0.00 | 0.00 | 0.00 | 1012.2 | |
| 20260506201403 | 54 | 301 | 3.0 | 7.0 | 0.00 | 0.00 | 0.00 | 1012.9 | |
| 20260506200903 | 54 | 0 | 2.0 | 7.0 | 0.00 | 0.00 | 0.00 | 1012.6 | |
| 20260506200402 | 54 | 37 | 2.0 | 7.0 | 0.00 | 0.00 | 0.00 | 1012.2 | |
| 20260506195903 | 54 | 332 | 3.0 | 7.0 | 0.00 | 0.00 | 0.00 | 1012.6 | |
| 20260506195402 | 55 | 323 | 3.0 | 8.0 | 0.00 | 0.00 | 0.00 | 1011.9 | |
| 20260506194903 | 55 | 18 | 3.0 | 10.0 | 0.00 | 0.00 | 0.00 | 1012.6 | |
| 20260506194403 | 55 | 6 | 3.0 | 11.0 | 0.00 | 0.00 | 0.00 | 1012.2 | |
| 20260506193903 | 55 | 337 | 3.0 | 11.0 | 0.00 | 0.00 | 0.00 | 1012.2 | |
| 20260506193403 | 55 | 341 | 4.0 | 10.0 | 0.00 | 0.00 | 0.00 | 1012.6 | |
| 20260506192903 | 55 | 316 | 2.0 | 10.0 | 0.00 | 0.00 | 0.00 | 1011.9 | |
| 20260506192403 | 55 | 314 | 4.0 | 10.0 | 0.00 | 0.00 | 0.00 | 1011.9 | |
| 20260506191903 | 55 | 309 | 5.0 | 10.0 | 0.00 | 0.00 | 0.00 | 1012.6 | |
| 20260506191403 | 56 | 0 | 3.0 | 10.0 | 0.00 | 0.00 | 0.00 | 1012.2 | |
| 20260506190903 | 55 | 328 | 2.0 | 13.0 | 0.00 | 0.00 | 0.00 | 1012.6 | |
| 20260506190403 | 55 | 332 | 4.0 | 13.0 | 0.00 | 0.00 | 0.00 | 1011.9 | |
| 20260506185903 | 55 | 8 | 3.0 | 12.0 | 0.00 | 0.00 | 0.00 | 1012.2 | |
| 20260506185403 | 56 | 323 | 4.0 | 8.0 | 0.00 | 0.00 | 0.00 | 1011.9 | |
| 20260506184903 | 56 | 350 | 3.0 | 7.0 | 0.00 | 0.00 | 0.00 | 1012.2 | |
| 20260506184446 | 56 | 28 | 3.0 | 9.0 | 0.00 | 0.00 | 0.00 | 1012.2 | |
| 20260506183903 | 56 | 27 | 3.0 | 9.0 | 0.00 | 0.00 | 0.00 | 1011.9 | |
| 20260506183403 | 56 | 5 | 4.0 | 9.0 | 0.00 | 0.00 | 0.00 | 1011.9 | |
| 20260506182903 | 56 | 336 | 4.0 | 9.0 | 0.00 | 0.00 | 0.00 | 1011.9 | |
| 20260506182403 | 56 | 4 | 2.0 | 12.0 | 0.00 | 0.00 | 0.00 | 1012.2 | |
| 20260506181945 | 56 | 11 | 3.0 | 12.0 | 0.00 | 0.00 | 0.00 | 1011.5 | |
| 20260506181403 | 55 | 352 | 2.0 | 10.0 | 0.00 | 0.00 | 0.00 | 1011.9 | |
| 20260506180903 | 56 | 40 | 4.0 | 11.0 | 0.00 | 0.00 | 0.00 | 1011.9 | |
| 20260506180403 | 56 | 43 | 3.0 | 11.0 | 0.00 | 0.00 | 0.00 | 1011.9 | |
| 20260506175903 | 55 | 335 | 3.0 | 10.0 | 0.00 | 0.00 | 0.00 | 1011.9 | |
| 20260506175403 | 55 | 287 | 5.0 | 14.0 | 0.00 | 0.00 | 0.00 | 1012.2 | |
| 20260506174903 | 55 | 298 | 8.0 | 14.0 | 0.00 | 0.00 | 0.00 | 1012.9 | |
| 20260506174403 | 55 | 331 | 2.0 | 10.0 | 0.00 | 0.00 | 0.00 | 1012.2 | |
| 20260506173903 | 55 | 301 | 5.0 | 11.0 | 0.00 | 0.00 | 0.00 | 1012.6 | |
| 20260506173403 | 55 | 277 | 5.0 | 11.0 | 0.00 | 0.00 | 0.00 | 1012.2 | |
| 20260506172903 | 55 | 11 | 2.0 | 7.0 | 0.00 | 0.00 | 0.00 | 1011.9 | |
| 20260506172424 | 55 | 339 | 2.0 | 9.0 | 0.00 | 0.00 | 0.00 | 1012.6 | |
| 20260506171903 | 55 | 307 | 3.0 | 9.0 | 0.00 | 0.00 | 0.00 | 1012.6 | |
| 20260506171402 | 55 | 3 | 3.0 | 12.0 | 0.00 | 0.00 | 0.00 | 1012.6 | |
| 20260506170903 | 55 | 11 | 5.0 | 12.0 | 0.00 | 0.00 | 0.00 | 1012.2 | |
| 20260506170402 | 55 | 329 | 4.0 | 12.0 | 0.00 | 0.00 | 0.00 | 1012.2 | |
| 20260506165924 | 55 | 295 | 8.0 | 12.0 | 0.00 | 0.00 | 0.00 | 1012.6 | |
| 20260506165402 | 54 | 18 | 3.0 | 10.0 | 0.00 | 0.00 | 0.00 | 1012.6 | |
| 20260506164903 | 54 | 332 | 3.0 | 10.0 | 0.00 | 0.00 | 0.00 | 1012.6 | |
| 20260506164403 | 54 | 330 | 4.0 | 10.0 | 0.00 | 0.00 | 0.00 | 1012.6 | |
| 20260506163924 | 54 | 358 | 2.0 | 8.0 | 0.00 | 0.00 | 0.00 | 1011.9 | |
| 20260506163403 | 53 | 11 | 3.0 | 9.0 | 0.00 | 0.00 | 0.00 | 1012.2 | |
| 20260506162924 | 54 | 19 | 3.0 | 9.0 | 0.00 | 0.00 | 0.00 | 1011.9 | |
| 20260506162404 | 53 | 41 | 4.0 | 8.0 | 0.00 | 0.00 | 0.00 | 1012.2 | |
| 20260506161903 | 53 | 2 | 4.0 | 10.0 | 0.00 | 0.00 | 0.00 | 1012.2 | |
| 20260506161403 | 53 | 0 | 4.0 | 10.0 | 0.00 | 0.00 | 0.00 | 1011.9 | |
| 20260506160924 | 52 | 337 | 3.0 | 6.0 | 0.00 | 0.00 | 0.00 | 1012.2 | |
| 20260506160403 | 52 | 271 | 4.0 | 6.0 | 0.00 | 0.00 | 0.00 | 1012.6 | |
| 20260506155903 | 52 | 356 | 2.0 | 10.0 | 0.00 | 0.00 | 0.00 | 1011.9 | |
| 20260506155404 | 52 | 21 | 4.0 | 10.0 | 0.00 | 0.00 | 0.00 | 1012.2 | |
| 20260506154904 | 51 | 356 | 2.0 | 9.0 | 0.00 | 0.00 | 0.00 | 1012.6 | |
| 20260506154403 | 51 | 295 | 2.0 | 9.0 | 0.00 | 0.00 | 0.00 | 1012.9 | |
| 20260506153903 | 51 | 308 | 5.0 | 9.0 | 0.00 | 0.00 | 0.00 | 1012.6 | |
| 20260506153403 | 51 | 310 | 2.0 | 9.0 | 0.00 | 0.00 | 0.00 | 1012.6 | |
| 20260506152905 | 51 | 331 | 2.0 | 9.0 | 0.00 | 0.00 | 0.00 | 1012.6 | |
| 20260506152403 | 51 | 334 | 4.0 | 9.0 | 0.00 | 0.00 | 0.00 | 1012.6 | |
| 20260506151903 | 50 | 36 | 3.0 | 8.0 | 0.00 | 0.00 | 0.00 | 1011.5 | |
| 20260506151402 | 50 | 313 | 2.0 | 9.0 | 0.00 | 0.00 | 0.00 | 1011.5 | |
| 20260506150903 | 50 | 322 | 3.0 | 9.0 | 0.00 | 0.00 | 0.00 | 1011.5 | |
| 20260506150424 | 50 | 5 | 3.0 | 10.0 | 0.00 | 0.00 | 0.00 | 1011.2 | |
| 20260506145903 | 50 | 36 | 4.0 | 10.0 | 0.00 | 0.00 | 0.00 | 1011.5 | |
| 20260506145403 | 50 | 16 | 4.0 | 10.0 | 0.00 | 0.00 | 0.00 | 1011.2 | |
| 20260506144903 | 50 | 5 | 5.0 | 10.0 | 0.00 | 0.00 | 0.00 | 1011.2 | |
| 20260506144404 | 50 | 317 | 3.0 | 8.0 | 0.00 | 0.00 | 0.00 | 1011.5 | |
| 20260506143903 | 49 | 24 | 4.0 | 9.0 | 0.00 | 0.00 | 0.00 | 1011.2 | |
| 20260506143424 | 49 | 313 | 5.0 | 9.0 | 0.00 | 0.00 | 0.00 | 1011.5 | |
| 20260506142924 | 49 | 16 | 3.0 | 9.0 | 0.00 | 0.00 | 0.00 | 1011.5 | |
| 20260506141403 | 49 | 29 | 2.0 | 7.0 | 0.00 | 0.00 | 0.00 | 1010.9 | |
| 20260506140903 | 48 | 317 | 3.0 | 7.0 | 0.00 | 0.00 | 0.00 | 1010.9 | |
| 20260506140403 | 48 | 333 | 2.0 | 7.0 | 0.00 | 0.00 | 0.00 | 1010.9 | |
| 20260506135903 | 48 | 327 | 3.0 | 7.0 | 0.00 | 0.00 | 0.00 | 1011.5 | |
| 20260506135403 | 47 | 285 | 2.0 | 8.0 | 0.00 | 0.00 | 0.00 | 1011.2 | |
| 20260506134903 | 47 | 327 | 4.0 | 8.0 | 0.00 | 0.00 | 0.00 | 1011.2 | |
| 20260506134402 | 47 | 15 | 2.0 | 8.0 | 0.00 | 0.00 | 0.00 | 1011.2 | |
| 20260506133903 | 47 | 319 | 3.0 | 8.0 | 0.00 | 0.00 | 0.00 | 1010.9 | |
| 20260506133446 | 47 | 0 | 0.0 | 9.0 | 0.00 | 0.00 | 0.00 | 1011.5 | |
| 20260506132903 | 46 | 314 | 3.0 | 9.0 | 0.00 | 0.00 | 0.00 | 1011.2 | |
| 20260506132403 | 46 | 319 | 3.0 | 7.0 | 0.00 | 0.00 | 0.00 | 1010.9 | |
| 20260506131905 | 46 | 1 | 2.0 | 7.0 | 0.00 | 0.00 | 0.00 | 1010.5 | |
| 20260506131403 | 46 | 11 | 2.0 | 7.0 | 0.00 | 0.00 | 0.00 | 1010.9 | |
| 20260506130903 | 45 | 355 | 2.0 | 7.0 | 0.00 | 0.00 | 0.00 | 1011.5 | |
| 20260506130403 | 45 | 333 | 2.0 | 7.0 | 0.00 | 0.00 | 0.00 | 1010.5 | |
| 20260506125903 | 45 | 328 | 3.0 | 6.0 | 0.00 | 0.00 | 0.00 | 1010.5 | |
| 20260506125403 | 45 | 20 | 3.0 | 6.0 | 0.00 | 0.00 | 0.00 | 1010.2 | |
| 20260506124924 | 45 | 335 | 2.0 | 5.0 | 0.00 | 0.00 | 0.00 | 1010.5 | |
| 20260506124403 | 45 | 339 | 2.0 | 6.0 | 0.00 | 0.00 | 0.00 | 1010.5 | |
| 20260506123903 | 45 | 349 | 2.0 | 7.0 | 0.00 | 0.00 | 0.00 | 1010.2 | |
| 20260506123403 | 44 | 346 | 2.0 | 8.0 | 0.00 | 0.00 | 0.00 | 1010.2 | |
| 20260506122924 | 44 | 7 | 3.0 | 8.0 | 0.00 | 0.00 | 0.00 | 1010.9 | |
| 20260506122403 | 44 | 312 | 3.0 | 6.0 | 0.00 | 0.00 | 0.00 | 1010.2 | |
| 20260506121945 | 44 | 318 | 2.0 | 7.0 | 0.00 | 0.00 | 0.00 | 1010.2 | |
| 20260506121424 | 44 | 11 | 3.0 | 7.0 | 0.00 | 0.00 | 0.00 | 1010.2 | |
| 20260506120924 | 44 | 344 | 2.0 | 7.0 | 0.00 | 0.00 | 0.00 | 1009.9 | |
| 20260506120424 | 44 | 7 | 2.0 | 7.0 | 0.00 | 0.00 | 0.00 | 1009.9 | |
| 20260506115903 | 44 | 338 | 2.0 | 7.0 | 0.00 | 0.00 | 0.00 | 1009.9 |